Location: Drignac
(45.1667°N, 2.0333°E)
Time: 06:22:08
(UTC+00:00)

SPOT 5 - Pass Details

Date: 29 March 2020
Orbit: 624 x 814 km, 98.3° (Epoch: 02 June)

Event Time Altitude Azimuth Distance (km) Brightness Sun altitude
Exits shadow 21:35:14 29° 348° (NNW) 1,177 4.4 -31.8°
Drops below altitude 10° 21:37:24 10° 347° (NNW) 2,030 5.9 -32.1°
Sets 21:39:34 0° 347° (NNW) 2,931 6.9 -32.3°
